Location: Saint-Gilles les Bains
(21.0539°S, 55.2287°E)
Time: 07:52:05
(UTC+04:00)

Hubble Space Telescope - Pass Details

Date: 19 June 2021
Orbit: 535 x 539 km, 28.5° (Epoch: 28 July)

Event Time Altitude Azimuth Distance (km) Brightness Sun altitude
Exits shadow 05:44:34 26° 219° (SW) 1,081 1.8 -16.0°
Maximum altitude 05:46:20 40° 168° (SSE) 804 1.6 -15.7°
Drops below altitude 10° 05:50:15 10° 97° (E) 1,794 4.5 -14.8°
Sets 05:52:37 0° 89° (E) 2,682 5.8 -14.3°
